Regional Weather Roundup
Issued by NWS Upton, NY

Current Version | Previous Version | Graphics & Text | Print | Product List | Glossary Off
Versions: 1 2 3 4 5 6 7 8 9 10 11 12 13 14 15 16 17 18 19 20 21 22 23 24 25 26 27

000
ASUS41 KOKX 202308
RWROKX

REGIONAL WEATHER ROUNDUP
NATIONAL WEATHER SERVICE NEW YORK NY
700 PM EDT WED SEP 20 2017

NOTE: "FAIR" INDICATES FEW OR NO CLOUDS BELOW 12,000 FEET WITH NO
SIGNIFICANT WEATHER AND/OR OBSTRUCTIONS TO VISIBILITY.

NYZ071-072-176-178-NJZ106-104-210000-
NEW YORK CITY METRO AREA

CITY           SKY/WX    TMP DP  RH WIND       PRES   REMARKS
Central Park   MOCLDY    78  64  61 NE6       29.92F
Bronx Bot Gard   N/A     75  63  64 NW2       29.90F
LaGuardia APRT MOCLDY    78  65  63 N16       29.89S
Kennedy INTL   MOCLDY    78  64  61 N14       29.89S
Breezy Point     N/A     77 N/A N/A N10         N/A
Newark/Liberty MOCLDY    79  63  57 N12       29.90S
Teterboro      MOCLDY    79  64  60 N8        29.89S
$$

NYZ177-179-078>081-210000-
LONG ISLAND NEW YORK

CITY           SKY/WX    TMP DP  RH WIND       PRES   REMARKS
Jones Beach      N/A     75 N/A N/A N15         N/A
Matinecock PT    N/A     75 N/A N/A N14         N/A
Farmingdale    CLOUDY    76  64  66 N12       29.88R
MacArthur/ISP  CLOUDY    76  65  68 N13       29.87R
Shirley        CLOUDY    76  66  71 N14       29.87R
Mt Sinai Harb    N/A    N/A N/A N/A N14         N/A
Westhampton    CLOUDY    73  64  73 N12       29.86R
East Hampton   CLOUDY    71  66  83 N14G26    29.83R
Montauk          N/A     71  67  87 N12G23    29.83R
$$

NYZ052-065-067-210000-
HUDSON VALLEY

CITY           SKY/WX    TMP DP  RH WIND       PRES   REMARKS
White Plains   CLOUDY    75  64  68 N12       29.90F
Larchmont Harb   N/A     75 N/A N/A NW13G18     N/A
Croton On Huds   N/A     77 N/A N/A N2G10       N/A
Newburgh       MOCLDY    75  66  73 NE12      29.95R
Montgomery     CLOUDY    72  68  87 N5        29.93S
Poughkeepsie   CLOUDY    75  64  68 N3        29.91S
Albany         CLOUDY    73  64  73 N5        29.96R
$$

NJZ001-105-106-008-010-013-015-019>022-104-210000-
NEW JERSEY

CITY           SKY/WX    TMP DP  RH WIND       PRES   REMARKS
Newark/Liberty MOCLDY    79  63  57 N12       29.90S
Teterboro      MOCLDY    79  64  60 N8        29.89S
Caldwell       PTCLDY    77  66  68 NE3       29.92R
Somerville     NOT AVBL
Linden         NOT AVBL
Perth Amboy      N/A     79 N/A N/A N9          N/A
Sussex         PTCLDY    74  66  76 CALM      29.93S
Andover          N/A     73  68  84 CALM      29.94S
Trenton        PTCLDY    79  66  64 NE5       29.91R
Millville      MOCLDY    82  69  64 NE10      29.90R
Atlantic City  PTCLDY    77  68  73 N5        29.90R
Wrightstown    PTCLDY    76  66  70 N7        29.89R
Toms River     MOCLDY    76  66  71 N8        29.91R
Belmar         CLOUDY    76  65  68 NW8       29.91S
$$

PAZ047>061-062-071-210000-
EASTERN PENNSYLVANIA

CITY           SKY/WX    TMP DP  RH WIND       PRES   REMARKS
Philadelphia   PTCLDY    80  64  58 NE10G21   29.90S
Allentown      PTCLDY    77  62  59 NE6       29.93R
Scranton       CLEAR     79  60  52 N6        29.97S
$$

CTZ002-004>006-009-010-012-RIZ004-006-007-MAZ004-011-015-210000-
SOUTHERN NEW ENGLAND
 IN CT

CITY           SKY/WX    TMP DP  RH WIND       PRES   REMARKS
Bradley INTL   CLOUDY    73  65  75 N8        29.90R
Hartford       CLOUDY    75  65  70 N10G21    29.88S
Danbury        MOCLDY    75  64  68 N9        29.93S
Wtrbury/Oxford CLOUDY    72  63  73 N10       29.92R
Norwalk Harbor   N/A     75 N/A N/A N13         N/A
Bridgeport     CLOUDY    77  63  61 N12G22    29.88R
Meriden        CLOUDY    74  63  68 N8        29.88R
New Haven      CLOUDY    76  64  66 N14G24    29.87R
Chester        CLOUDY    73  66  78 N13G20    29.87S
Groton         CLOUDY    72  66  81 N17G24    29.82R
Wilimantic     CLOUDY    73  67  81 N14G22    29.87S

 IN RI

CITY           SKY/WX    TMP DP  RH WIND       PRES   REMARKS
Providence     LGT RAIN  69  68  96 N20G28    29.85R FOG
Block Island   CLOUDY    69  66  90 N21G31    29.80S
Westerly       CLOUDY    72  66  81 N14G26    29.83R
 IN MA

CITY           SKY/WX    TMP DP  RH WIND       PRES   REMARKS
Boston         CLOUDY    71  66  84 N24       29.87S
Worcester      LGT RAIN  66  64  93 N15G28    29.93R FOG
Westfield      CLOUDY    73  65  75 N8        29.91S
Provincetown   CLOUDY    63  62  97 NE22G31   29.80F FOG
Nantucket      RAIN      66  66 100 N32G43    29.67R FOG
$$

ANZ330-335-338-340-345-350-353-355-210000-
COASTAL MARINE OBSERVATIONS


STATION/POSITION TIME  SKY/WX   TEMP    WIND        PRES    VSBY  WAVE
                                AIR SEA DIR/SP/G                  HT/PER
                 (UTC)          (F)     (DEG/KT/KT) (MB)    (MI)  (FT/S)
NY HARB ENTRANCE 2150            75 71  340/ 16/ 17 1010.6          6/ 9
20 S FIRE ISLAND 2150            72 68  350/ 16/ 17 1010.5          7/11
GREAT SOUTH BAY  2215            75 71  350/ 14/ 21   N/A
23 SSW MONTAUK P 2150            69 66              1008.7          9/11
15 E BARNEGAT LI 2230               69                N/A           7/11
HUDSON CANYON    2150            72 69  340/ 25/ 31 1007.8         10/10
KINGS POINT      2224            75 71   30/ 11/ 13 1012.9
EXECUTION ROCKS  2245            77      10/ 12/ 17   N/A
WESTERN LI SOUND NOT AVBL
CENTRAL LI SOUND NOT AVBL
EASTERN LI SOUND NOT AVBL
ROBBINS REEF     2230            78     360/ 10/ 13 1013.0
$$


>>>>>>>>>>>>>>>>>>>>>>>>>>>> KEY <<<<<<<<<<<<<<<<<<<<<<<<<<<
>                                                          <
>     SKY/WX - Sky Condition/Present Weather               <
>     TMP    - Temperature in Fahrenheit                   <
>     DP     - Dew Point in Fahrenheit                     <
>     RH     - Relative Humidity in Percent                <
>     WIND   - Direction (from) and Speed in MPH           <
>     PRES   - Mean Sea Level Pressure (inches of Hg)      <
>     WCI    - Wind Chill Index                            <
>     VSB    - VISIBILITY IN MILES                         <
>     HX     - HEAT INDEX                                  <
>     TC     - TEMPERATURE IN CELSIUS                      <
>     VRB    - VARIABLE WIND DIRECTION                     <
>                                                          <
>>>>>>>>>>>>>>>>>>>>>>>>>>>> KEY <<<<<<<<<<<<<<<<<<<<<<<<<<<




USA.gov is the U.S. government's official web portal to all federal, state and local government web resources and services.